Home > Weather > Road Town > Past weeks

Flag for British Virgin Islands Past Weather in Road Town, Tortola, British Virgin Islands — Yesterday and Last 2 Weeks

Now
80 °F

Passing clouds.


Feels Like: 85 °F
Forecast: 80 / 83 °F
Wind: 10 mph from East

Location: Cyril E. King International Airport

Current Time: May 27, 2016 at 2:48:00 AM

Latest Report: May 27, 2016 at 1:53 AM


Visibility: 10 mi

Pressure: 29.93 "Hg

Humidity: 85%

Dew Point: 75 °F

Location of Road TownLocation

Past Weather in Road Town — Graph

°F

Road Town Temperature Yesterday

Maximum temperature yesterday: 87 °F (at 11:53 AM)
Minimum temperature yesterday: 79 °F (at 12:53 AM)
Average temperature yesterday: 82 °F

High & Low Weather Summary for the Past Weeks

 TemperatureHumidityPressure
High89 °F (May 17, 3:00 PM)90% (May 13, 1:41 AM)30.12 "Hg (May 13, 1:41 AM)
Low78 °F (May 12, 11:53 PM)59% (May 15, 12:53 PM)29.93 "Hg (May 26, 3:53 PM)
Average84 °F73%30.04 "Hg
* Reported May 12 12:53 AM — May 27 12:53 AM, Road Town, Weather by CustomWeather, © 2016

Note: Actual official high and low records may vary slightly from our data, if they occured in-between our weather recording intervals... More about our weather records

Advertising

Road Town Weather History for the Previous 24 Hours

Scroll right to see more
 ConditionsComfort  
Time TempWeatherWind HumidityBarometerVisibility
12:53 AM
Fri, May 27
80 °FPartly cloudy.8 mph87%29.96 "Hg10 mi
11:53 PM
Thu, May 26
80 °FPassing clouds.8 mph87%29.98 "Hg10 mi
10:53 PM81 °FPassing clouds.8 mph79%29.98 "Hg10 mi
9:53 PM82 °FClear.10 mph79%29.98 "Hg10 mi
8:53 PM82 °FClear.10 mph77%29.98 "Hg10 mi
7:53 PM82 °FClear.12 mph77%29.97 "Hg10 mi
6:53 PM82 °FPassing clouds.10 mph72%29.96 "Hg10 mi
5:53 PM83 °FPartly sunny.8 mph74%29.94 "Hg9 mi
4:53 PM85 °FScattered clouds.9 mph70%29.93 "Hg10 mi
3:53 PM83 °FBroken clouds.7 mph70%29.93 "Hg10 mi
2:53 PM83 °FPartly sunny.12 mph74%29.95 "Hg10 mi
1:53 PM84 °FMostly cloudy.14 mph67%29.97 "Hg10 mi
1:03 PM85 °FPartly sunny.14 mph70%29.97 "Hg10 mi
12:53 PM85 °FPartly sunny.13 mph68%29.97 "Hg10 mi
11:53 AM87 °FPassing clouds.12 mph61%29.98 "Hg10 mi
10:53 AM86 °FScattered clouds.9 mph61%30.00 "Hg10 mi
9:53 AM86 °FScattered clouds.9 mph61%30.01 "Hg10 mi
8:53 AM85 °FScattered clouds.8 mph63%30.01 "Hg10 mi
7:53 AM84 °FPassing clouds.10 mph67%30.01 "Hg10 mi
6:53 AM81 °FSunny.6 mph74%30.01 "Hg10 mi
5:53 AM79 °FSunny.3 mph77%30.00 "Hg10 mi
4:53 AM79 °FClear.5 mph77%29.98 "Hg10 mi
3:53 AM79 °FClear.5 mph77%29.98 "Hg10 mi
2:53 AM79 °FClear.5 mph77%29.98 "Hg10 mi
Weather by CustomWeather, © 2016

See weather overviewHow to use our weather pages